Location: Artiguedieu
(43.5000°N, 0.5454°E)
Time: 11:36:18
(UTC+00:00)

COSMOS 2455 - Pass Details

Date: 06 December 2020
Orbit: 900 x 909 km, 67.1° (Epoch: 28 January)

Event Time Altitude Azimuth Distance (km) Brightness Sun altitude
Exits shadow 04:49:21 65° 251° (WSW) 997 2.7 -25.9°
Maximum altitude 04:50:07 73° 302° (WNW) 947 2.7 -25.7°
Drops below altitude 10° 04:56:10 10° 28° (NNE) 2,601 5.4 -24.6°
Sets 04:58:42 0° 30° (NNE) 3,547 6.2 -24.2°
